This demonstration page uses our WeatherBlox Daily Observations layout. Learn more.

36.19886, -115.1175

Hourly Observations for November 18, 2018

Temp ( °F °C ) Dew Point ( °F °C ) Humidity (%) Winds ( mph kmh ) Pressure ( in mb ) Visibility ( mi km ) Precip ( " mm )
12:53 am 00:53 Clear 49 9.4 23 -5 36 36 N 3 6 30.12 1020 10 16.09344 0 0
1:53 am 01:53 Clear 46 7.8 23 -5 40 40 NW 3 6 30.15 1021 10 16.09344 0 0
2:53 am 02:53 Clear 43 6.1 22 -5.6 43 43 Calm 30.15 1021 10 16.09344 0 0
3:53 am 03:53 Clear 44 6.7 24 -4.4 45 45 NW 7 11 30.15 1021 10 16.09344 0 0
4:53 am 04:53 Clear 42 5.6 23 -5 47 47 Calm 30.18 1022 10 16.09344 0 0
5:53 am 05:53 Clear 45 7.2 21 -6.1 39 39 W 5 7 30.21 1023 10 16.09344 0 0
6:53 am 06:53 Sunny 46 7.8 21 -6.1 37 37 NW 7 11 30.24 1024 10 16.09344 0 0
7:53 am 07:53 Sunny 50 10 20 -6.7 30 30 NNW 6 9 30.27 1025 10 16.09344 0 0
8:53 am 08:53 Sunny 55 12.8 26 -3.3 33 33 NNW 8 13 30.27 1025 10 16.09344 0 0
9:53 am 09:53 Sunny 58 14.4 26 -3.3 29 29 SSE 3 6 30.24 1024 10 16.09344 0 0
10:53 am 10:53 Sunny 60 15.6 26 -3.3 27 27 N 3 6 30.24 1024 10 16.09344 0 0
11:53 am 11:53 Sunny 62 16.7 26 -3.3 25 25 ESE 6 9 30.21 1023 10 16.09344 0 0
12:53 pm 12:53 Sunny 64 17.8 25 -3.9 23 23 E 6 9 30.15 1021 10 16.09344 0 0
1:53 pm 13:53 Sunny 64 17.8 25 -3.9 23 23 E 7 11 30.15 1021 10 16.09344 0 0
2:53 pm 14:53 Sunny 64 17.8 25 -3.9 23 23 SE 5 7 30.15 1021 10 16.09344 0 0
3:53 pm 15:53 Sunny 63 17.2 25 -3.9 24 24 ESE 6 9 30.15 1021 10 16.09344 0 0
4:53 pm 16:53 Clear 60 15.6 24 -4.4 25 25 SE 5 7 30.15 1021 10 16.09344 0 0
5:53 pm 17:53 Clear 58 14.4 26 -3.3 29 29 WSW 3 6 30.15 1021 10 16.09344 0 0
6:53 pm 18:53 Clear 56 13.3 26 -3.3 32 32 WNW 3 6 30.18 1022 10 16.09344 0 0
7:53 pm 19:53 Clear 51 10.6 27 -2.8 39 39 NW 7 11 30.18 1022 10 16.09344 0 0
8:53 pm 20:53 Clear 50 10 28 -2.2 43 43 WNW 6 9 30.18 1022 10 16.09344 0 0
9:53 pm 21:53 Clear 48 8.9 26 -3.3 42 42 NW 8 13 30.21 1023 10 16.09344 0 0
10:53 pm 22:53 Clear 46 7.8 24 -4.4 42 42 NNW 8 13 30.21 1023 10 16.09344 0 0
11:53 pm 23:53 Clear 46 7.8 20 -6.7 35 35 NNW 7 11 30.21 1023 10 16.09344 0 0

Powered by AerisWeather